Simultaneous Nadir Overpasses (SNOs) Predictions

Prediction of SNOs between METOP-B and TERRA Satellite Orbit:

Table of predicted SNOs for the next 14.0 days since TLE Epoch: 3/16/2024
Index Date (METOP-B) Time (METOP-B) Lat,Lon (METOP-B) SZA (METOP-B ) Date (TERRA) Time (TERRA) Lat,Lon (TERRA) SZA (TERRA ) Distance(km) Time Diff (sec)
1 03/16/2024 06:44:04 80.34, 102.81 82.50 03/16/2024 06:44:54 80.34, 102.72 82.51 1.64 50
2 03/16/2024 07:34:41 -80.45, -88.53 97.33 03/16/2024 07:34:13 -80.44, -88.67 97.36 2.79 28
3 03/18/2024 22:05:04 -80.34, 52.57 98.53 03/18/2024 22:05:28 -80.35, 52.62 98.52 1.17 24
4 03/18/2024 22:55:39 80.49,-138.36 81.70 03/18/2024 22:54:45 80.48,-138.51 81.67 2.87 54
5 03/21/2024 12:37:34 -75.18, 166.58 105.39 03/21/2024 12:38:47 -74.70, 169.33 105.92 95.32 73
6 03/21/2024 13:26:02 80.38, 2.67 80.49 03/21/2024 13:26:00 80.37, 2.63 80.49 0.85 2
7 03/24/2024 03:56:23 80.31, 144.30 79.37 03/24/2024 03:57:13 80.31, 144.24 79.38 1.00 50
8 03/24/2024 04:47:01 -80.40, -47.35 100.50 03/24/2024 04:46:32 -80.41, -47.19 100.49 3.09 29
9 03/26/2024 19:17:21 -80.33, 94.24 101.63 03/26/2024 19:17:44 -80.33, 94.25 101.62 0.14 23
10 03/26/2024 20:07:56 80.47, -96.72 78.61 03/26/2024 20:07:01 80.46, -96.86 78.58 2.70 55
11 03/29/2024 09:47:56 -79.84,-128.39 103.39 03/29/2024 09:49:10 -79.76,-128.13 103.43 10.07 74



Historial Predications of SNOs between METOP-B and TERRA
